Location: Newark
(0.5300°S, 127.4800°E)
Time: 23:00:01
(UTC+00:00)

Vanguard 3 - Pass Details

Date: 23 September 2019
Orbit: 508 x 3262 km, 33.3° (Epoch: 15 October)

Event Time Altitude Azimuth Distance (km) Brightness Sun altitude
Rises 21:45:51 0° 278° (W) 4,504 10.3 5.9°
Reaches altitude 10° 21:49:15 10° 292° (WNW) 3,918 10.1 6.7°
Maximum altitude 21:57:42 24° 342° (NNW) 3,731 10.4 8.8°
Drops below altitude 10° 22:09:50 10° 30° (NNE) 5,710 11.9 11.9°
Sets 22:16:28 0° 42° (NE) 7,040 12.6 13.5°
